TimeEDT,TemperatureF,Dew PointF,Humidity,Sea Level PressureIn,VisibilityMPH,Wind Direction,Wind SpeedMPH,Gust SpeedMPH,PrecipitationIn,Events,Conditions,WindDirDegrees,DateUTC
12:01 AM,51.8,48.2,88,28.61,6.0,SE,26.5,42.6,0.00,Rain,Light Rain,140,2012-10-30 04:01:00
12:54 AM,50.0,46.0,86,28.75,6.0,SSE,29.9,46.0,0.01,Rain,Light Rain,150,2012-10-30 04:54:00
12:59 AM,50.0,46.4,87,28.76,8.0,SSE,24.2,38.0,0.01,Rain,Light Rain,150,2012-10-30 04:59:00
5:42 AM,46.4,42.8,87,29.09,6.0,SSE,16.1,23.0,0.00,Rain,Light Rain,150,2012-10-30 09:42:00
5:54 AM,46.9,43.0,86,29.10,6.0,SSE,15.0,23.0,0.00,,Overcast,150,2012-10-30 09:54:00
6:33 AM,46.4,44.6,93,29.12,8.0,SE,10.4,-,0.01,Rain,Light Rain,140,2012-10-30 10:33:00
6:54 AM,46.9,43.0,86,29.14,9.0,SE,13.8,-,0.02,Rain,Light Rain,140,2012-10-30 10:54:00
7:04 AM,46.4,42.8,87,29.14,10.0,SE,13.8,-,0.00,Rain,Light Rain,140,2012-10-30 11:04:00
7:11 AM,46.4,42.8,87,29.15,10.0,SSE,12.7,-,0.00,Rain,Light Rain,150,2012-10-30 11:11:00
7:54 AM,46.9,43.0,86,29.18,10.0,SE,11.5,-,0.00,Rain,Light Rain,140,2012-10-30 11:54:00
8:21 AM,46.4,42.8,87,29.20,10.0,SSE,10.4,21.9,0.00,Rain,Light Rain,150,2012-10-30 12:21:00
8:39 AM,46.4,42.8,87,29.21,10.0,SSE,9.2,-,0.00,Rain,Light Rain,150,2012-10-30 12:39:00
8:54 AM,46.9,43.0,86,29.22,10.0,SE,11.5,19.6,0.01,Rain,Light Rain,130,2012-10-30 12:54:00
9:41 AM,46.4,42.8,87,29.25,8.0,SSE,13.8,23.0,0.01,Rain,Light Rain,150,2012-10-30 13:41:00
9:54 AM,46.9,43.0,86,29.26,8.0,SSE,12.7,20.7,0.02,Rain,Light Rain,150,2012-10-30 13:54:00
10:50 AM,46.4,42.8,87,29.29,6.0,South,12.7,-,0.03,Rain,Light Rain,170,2012-10-30 14:50:00
10:54 AM,46.9,43.0,86,29.29,6.0,South,13.8,-,0.03,Rain,Light Rain,170,2012-10-30 14:54:00
11:13 AM,46.4,42.8,87,29.31,7.0,South,16.1,23.0,0.02,Rain,Light Rain,180,2012-10-30 15:13:00
11:31 AM,46.4,42.8,87,29.32,5.0,South,19.6,25.3,0.03,Rain,Rain,190,2012-10-30 15:31:00
11:48 AM,46.4,42.8,87,29.32,7.0,South,16.1,21.9,0.06,Rain,Rain,180,2012-10-30 15:48:00
11:54 AM,46.0,42.1,86,29.33,7.0,South,13.8,21.9,0.06,Rain,Light Rain,190,2012-10-30 15:54:00
12:20 PM,46.4,42.8,87,29.34,10.0,South,11.5,20.7,0.01,Rain,Light Rain,180,2012-10-30 16:20:00
12:54 PM,48.0,42.1,80,29.34,10.0,South,12.7,20.7,0.01,,Overcast,170,2012-10-30 16:54:00
1:20 PM,48.2,41.0,76,29.34,10.0,SSE,12.7,18.4,N/A,,Overcast,150,2012-10-30 17:20:00
1:54 PM,48.0,39.9,74,29.35,10.0,SSE,16.1,24.2,0.00,Rain,Light Rain,160,2012-10-30 17:54:00
2:54 PM,48.0,41.0,77,29.37,10.0,SSE,10.4,-,0.00,Rain,Light Rain,160,2012-10-30 18:54:00
3:09 PM,48.2,41.0,76,29.37,10.0,South,11.5,18.4,0.00,Rain,Light Rain,170,2012-10-30 19:09:00
3:54 PM,48.0,41.0,77,29.39,10.0,South,11.5,-,0.00,Rain,Light Rain,180,2012-10-30 19:54:00
4:54 PM,46.0,39.9,79,29.42,10.0,South,12.7,-,0.00,Rain,Light Rain,170,2012-10-30 20:54:00
5:54 PM,45.0,41.0,86,29.44,10.0,South,6.9,-,0.01,Rain,Light Rain,170,2012-10-30 21:54:00
6:44 PM,44.6,39.2,81,29.46,10.0,SSW,8.1,-,0.01,Rain,Light Rain,210,2012-10-30 22:44:00
6:54 PM,45.0,39.9,82,29.47,10.0,SSW,8.1,-,0.02,Rain,Light Rain,210,2012-10-30 22:54:00
7:40 PM,44.6,41.0,87,29.47,10.0,South,6.9,-,0.00,Rain,Light Rain,180,2012-10-30 23:40:00
7:54 PM,44.1,41.0,89,29.47,10.0,SSW,5.8,-,0.01,Rain,Light Rain,200,2012-10-30 23:54:00
8:01 PM,44.6,39.2,81,29.48,10.0,South,9.2,-,0.00,Rain,Light Rain,190,2012-10-31 00:01:00
8:39 PM,44.6,41.0,87,29.48,10.0,South,8.1,-,0.01,Rain,Light Rain,170,2012-10-31 00:39:00
8:54 PM,44.1,39.9,85,29.48,10.0,SSW,10.4,-,0.01,Rain,Light Rain,200,2012-10-31 00:54:00
9:41 PM,44.6,39.2,81,29.49,10.0,South,11.5,-,0.00,,Overcast,190,2012-10-31 01:41:00
9:54 PM,44.1,39.9,85,29.49,10.0,SSW,10.4,-,0.00,,Overcast,200,2012-10-31 01:54:00
10:01 PM,44.6,39.2,81,29.49,10.0,SSW,8.1,-,0.00,Rain,Light Rain,200,2012-10-31 02:01:00
10:54 PM,44.1,39.9,85,29.49,10.0,South,8.1,-,0.00,,Overcast,170,2012-10-31 02:54:00
11:54 PM,43.0,39.9,89,29.49,10.0,South,5.8,-,N/A,,Mostly Cloudy,170,2012-10-31 03:54:00